Wind_Speed
26 24 23 23 21 19 15 14 13 12 13 14 14 14 14 15 16 16 16 15 14 15 15 17 17 17 17 16 15 16 16 15 13 12 13 12 9 6 4 2 2 2 3 4 5 5 6 7 7
26 25 23 21 19 18 15 13 13 12 13 13 13 14 14 14 14 13 13 11 12 13 13 15 15 16 15 15 14 14 13 14 14 13 11 10 9 8 7 6 6 5 4 4 4 5 5 5 5
27 26 23 20 18 16 16 14 13 12 11 13 11 11 12 12 12 10 9 9 9 10 11 12 13 14 13 12 12 12 12 11 10 11 10 9 8 6 5 5 5 5 5 5 6 6 5 6 7
29 26 22 20 17 15 15 14 13 11 10 10 11 10 9 9 9 8 7 6 6 7 9 10 11 12 12 11 8 9 9 9 9 8 7 7 7 6 6 6 6 6 7 7 7 8 7 8 8
29 26 23 20 17 16 14 11 11 10 8 7 9 9 8 6 6 4 4 4 4 5 6 8 9 10 10 9 7 6 6 7 7 7 6 5 5 4 5 5 6 6 6 6 7 8 9 10 10
29 27 24 21 19 17 14 11 8 8 7 6 6 6 6 5 4 2 1 1 2 4 6 8 10 11 11 9 5 4 4 4 5 6 6 5 5 5 5 5 5 5 6 7 7 9 9 10 10
31 28 26 24 22 18 15 12 9 7 5 5 4 5 4 3 2 0 0 1 2 3 6 9 11 12 12 11 5 2 3 3 3 4 5 4 4 5 6 6 7 7 8 8 8 8 9 9 10
31 29 28 26 23 20 17 13 9 7 5 4 4 5 5 5 3 1 3 2 2 4 6 9 11 12 11 10 6 4 4 4 4 4 4 4 4 4 6 6 6 7 8 10 10 10 10 11 11
32 30 28 26 25 21 17 15 11 7 5 4 4 5 6 6 5 4 3 4 3 4 5 8 10 11 10 9 7 6 5 5 6 6 5 4 4 5 6 7 8 9 9 10 10 11 12 13 13
34 30 30 27 25 23 21 17 13 10 7 5 4 5 7 7 6 5 5 5 4 5 4 6 9 9 9 9 8 8 7 7 6 5 5 5 6 8 8 9 10 10 11 11 11 11 12 13 14
34 32 32 30 26 24 22 18 15 13 11 8 5 7 9 9 8 7 7 7 5 5 5 5 7 8 8 9 8 8 7 7 7 6 7 7 8 9 8 9 11 12 14 14 15 15 15 15 16
34 34 35 32 29 25 23 20 16 15 12 10 8 9 10 12 10 9 9 9 8 6 6 6 6 7 8 9 9 9 7 7 8 8 8 10 10 10 11 13 13 13 14 15 16 17 18 18 19
36 36 36 34 32 29 27 22 19 19 15 14 12 12 12 14 13 13 12 12 10 9 8 7 6 8 8 9 10 11 10 8 9 11 12 12 12 13 13 14 15 17 18 19 20 21 21 20 21
38 36 36 35 34 33 30 26 22 22 20 18 16 16 15 16 16 14 16 14 13 12 10 10 8 8 8 9 10 10 12 12 11 12 14 15 18 19 17 18 19 22 23 24 25 24 24 23 24
37 37 39 38 36 34 32 29 22 27 23 20 20 20 19 19 17 20 19 18 17 15 13 13 11 12 11 12 12 13 14 14 13 12 13 14 15 18 22 23 24 25 27 28 29 28 28 27 26
39 39 39 39 38 37 36 29 27 28 27 25 22 22 22 21 21 22 22 22 21 19 17 14 14 15 14 13 14 15 16 17 17 17 16 16 16 16 17 19 22 24 27 30 31 32 32 32 32
42 40 40 41 40 39 39 33 32 32 30 28 25 25 24 23 23 26 26 27 24 23 20 19 18 18 18 18 18 19 19 20 22 23 23 22 22 22 23 22 22 24 26 27 29 30 32 34 34
38 39 41 38 41 42 40 39 36 36 33 31 28 27 26 26 26 29 29 28 28 26 24 22 22 23 23 22 21 22 23 24 25 26 29 29 29 28 28 29 29 29 29 29 31 33 34 35 37
39 40 41 47 46 42 42 41 38 37 35 34 32 30 28 28 30 30 32 31 29 28 28 28 26 27 27 27 27 28 28 29 30 33 33 33 33 34 34 34 34 34 34 34 35 37 38 38 39
41 41 41 46 46 41 43 41 37 36 36 34 34 31 29 29 31 33 35 34 30 31 32 31 30 30 32 32 33 32 33 33 35 37 38 39 39 38 37 37 37 38 38 37 38 39 41 41 42
43 40 42 42 39 45 44 42 39 37 35 33 32 30 29 29 31 34 36 36 32 31 34 34 34 34 35 36 37 36 38 38 39 41 42 43 43 42 42 41 40 43 42 42 42 43 46 44 41
45 42 42 42 43 44 43 43 38 35 33 33 32 31 32 31 30 32 35 37 34 32 33 36 38 38 39 39 40 41 42 42 43 43 45 46 46 46 45 42 44 44 44 45 46 49 49 46 42
42 41 41 41 42 46 46 45 40 34 33 32 33 31 31 31 31 31 33 36 36 35 34 36 38 39 40 41 42 44 44 45 46 47 48 48 48 48 46 44 46 46 45 45 47 49 48 48 41
47 44 44 44 44 46 42 41 40 37 33 30 31 32 33 33 33 32 33 35 38 39 38 38 38 40 41 43 45 46 47 48 48 48 49 49 49 48 48 49 48 47 48 48 49 49 49 47 47
52 50 48 48 47 47 44 42 40 39 36 35 35 34 34 34 34 35 36 36 37 39 41 43 44 45 45 46 47 48 48 49 49 49 49 49 51 52 52 50 49 49 50 51 52 50 48 46 44
52 51 49 48 48 46 46 45 42 45 39 38 39 38 38 38 37 36 37 39 40 41 42 44 45 46 47 47 48 49 49 49 49 49 50 52 53 54 54 53 53 53 54 54 52 48 45 44 44
54 54 51 51 51 52 51 49 47 47 45 43 41 41 41 43 44 44 43 43 43 43 44 45 46 48 49 49 51 52 50 49 50 51 54 55 54 53 53 54 55 58 56 51 46 42 41 43 44
55 53 52 53 55 56 56 54 50 48 48 47 46 46 46 45 44 43 45 47 48 49 48 47 48 48 48 50 50 50 50 50 51 52 54 53 52 53 54 56 56 55 49 45 41 41 41 42 43
54 55 57 57 58 57 57 56 53 51 50 50 51 51 49 45 46 48 48 49 56 54 52 50 49 48 48 49 50 50 51 51 52 53 53 53 53 55 57 57 53 49 47 45 42 41 41 41 42
52 53 55 57 57 57 56 55 51 50 51 51 50 49 50 56 55 51 48 48 50 50 49 49 50 48 47 50 51 52 52 52 53 54 55 57 58 59 58 55 50 48 48 47 45 44 43 45 45
Wind_Direction
163 159 157 153 148 145 146 140 130 124 115 107 103 98 95 99 91 86 79 69 61 60 60 61 58 55 52 51 52 55 57 59 62 63 64 71 74 71 68 49 4 347 318 315 312 312 310 299 291
167 165 162 160 154 154 152 147 136 128 117 110 102 104 106 106 98 91 80 68 64 58 56 56 55 52 49 48 48 50 52 56 59 65 68 70 71 68 63 56 47 34 25 12 354 346 321 312 298
173 171 169 168 163 162 156 152 142 133 123 111 109 107 113 113 104 94 83 73 65 60 55 48 47 45 44 42 42 44 49 51 52 58 59 60 58 55 48 37 21 6 5 5 359 353 339 324 317
178 176 176 176 168 167 167 162 151 142 137 127 120 113 113 119 115 110 91 73 61 52 49 41 38 35 31 38 36 37 39 42 44 44 46 44 42 38 34 31 20 12 6 358 347 339 330 319 316
182 178 181 176 172 170 170 165 152 145 142 143 128 124 120 118 122 124 98 74 48 35 36 26 17 16 16 23 29 30 28 30 33 34 34 23 9 4 1 12 7 357 349 338 332 331 329 327 327
186 182 184 175 176 175 173 170 162 150 149 152 144 142 139 133 119 124 141 62 37 11 11 8 1 1 3 6 15 28 26 17 16 17 15 14 5 345 331 325 326 330 334 331 325 322 318 321 320
187 186 185 178 179 178 177 175 171 162 150 157 171 167 179 164 150 140 278 275 319 351 352 350 347 349 352 357 8 19 15 11 358 2 359 359 1 6 359 319 303 301 301 305 311 315 315 312 308
192 189 189 182 183 183 181 178 178 177 162 175 197 196 196 198 218 255 295 272 289 328 340 341 339 341 347 358 10 17 356 346 337 336 339 337 343 348 351 350 329 299 294 292 292 298 305 309 308
196 194 192 188 188 189 186 184 188 193 194 193 214 226 222 199 223 255 256 261 285 317 333 337 342 344 349 1 4 5 3 345 324 315 320 319 317 328 337 335 332 331 327 319 314 309 304 302 301
201 197 199 193 193 192 194 192 192 205 216 226 220 237 244 230 222 244 225 241 271 296 324 339 339 348 352 359 6 8 10 11 1 343 321 318 317 326 331 329 329 329 326 325 326 323 318 314 312
203 200 201 201 198 200 201 201 200 211 222 237 246 233 244 236 236 244 232 233 246 277 301 324 335 348 357 359 357 355 359 7 13 359 341 327 320 321 328 326 326 327 326 327 327 323 318 313 309
210 206 205 204 206 206 208 208 209 221 228 241 251 250 246 238 242 243 232 240 255 262 274 296 320 337 349 357 357 350 345 335 333 335 337 334 332 325 319 313 314 321 323 321 320 318 315 313 310
216 213 211 207 209 211 213 215 218 228 231 245 249 251 253 246 243 246 232 238 246 255 266 283 299 319 330 347 351 355 354 347 336 320 314 316 321 323 319 316 319 322 321 321 321 318 312 307 303
218 218 221 216 214 216 219 218 220 234 232 241 249 252 253 243 245 246 237 241 247 252 264 273 282 298 315 327 341 344 345 350 351 340 329 321 316 313 313 314 315 316 317 319 321 322 318 311 303
223 223 225 226 223 224 225 226 225 233 240 238 247 252 250 249 240 241 242 242 245 250 255 267 277 284 292 303 313 320 326 332 336 340 338 332 325 320 316 314 312 311 311 313 314 317 318 316 308
229 230 230 233 231 231 233 229 235 238 243 244 246 254 257 255 245 247 243 239 241 247 251 262 268 278 289 298 303 310 313 316 320 323 321 320 323 321 320 318 319 318 315 313 312 311 311 310 310
237 235 235 236 237 237 237 236 243 242 245 249 249 252 255 257 248 245 244 244 241 245 251 255 264 270 278 286 293 299 304 310 313 314 314 315 314 313 312 312 312 313 312 310 307 305 301 301 301
233 237 238 242 244 242 241 242 244 248 250 254 252 250 250 251 247 245 247 248 246 245 251 257 260 268 274 281 285 290 296 301 307 307 309 311 310 309 309 308 305 307 307 310 311 306 302 298 297
234 236 239 242 246 245 247 245 247 249 254 256 254 252 250 246 248 248 246 249 247 247 249 255 260 265 273 276 283 287 293 298 301 303 305 304 305 306 307 306 303 303 304 305 308 309 305 298 293
234 236 240 240 244 248 247 247 249 253 253 253 255 256 253 249 247 248 246 247 250 249 250 254 259 263 269 275 279 286 288 292 295 297 299 301 301 302 302 301 299 299 299 301 302 306 307 303 295
237 237 238 240 242 249 249 247 247 249 254 257 256 255 254 250 246 247 249 248 252 255 254 255 259 264 268 274 278 283 286 289 291 294 296 298 299 298 298 296 296 297 298 297 299 302 306 307 301
232 236 240 240 243 248 250 248 245 250 254 255 254 252 255 259 256 251 250 251 253 256 257 257 260 263 267 273 277 280 282 286 288 291 292 292 294 294 294 293 295 295 296 297 299 302 304 304 294
236 236 238 239 240 239 243 248 243 243 249 252 255 259 259 260 259 256 253 251 254 258 260 261 263 265 268 271 276 279 283 284 286 287 288 290 289 288 288 288 290 293 292 293 295 296 298 297 291
238 238 240 241 242 242 241 246 237 241 242 247 255 259 261 261 261 262 258 256 257 259 262 264 266 268 270 272 275 278 279 281 283 284 285 285 285 285 286 288 289 290 291 291 292 294 294 292 289
240 242 243 245 245 245 245 247 244 250 251 251 251 251 256 260 263 264 266 265 263 262 264 265 267 269 270 272 274 276 277 279 280 280 280 282 283 285 287 287 288 288 288 289 290 290 288 286 285
244 246 249 254 255 254 254 249 244 251 253 257 260 262 264 265 264 263 263 263 264 266 267 267 268 269 269 270 270 271 272 274 276 278 278 282 284 285 287 288 288 289 290 291 290 287 282 279 279
243 246 249 251 252 255 254 250 249 251 256 258 263 265 268 269 270 270 271 271 268 265 262 263 264 266 268 270 271 272 274 275 277 278 279 280 282 283 285 287 289 290 292 291 287 282 279 278 281
244 245 246 248 251 253 255 255 255 257 264 269 267 265 266 266 268 270 274 276 275 272 271 270 269 269 271 272 273 274 273 273 274 274 275 275 277 279 282 284 287 289 290 288 283 282 281 279 278
243 244 248 250 250 254 256 257 258 261 262 264 267 267 266 269 276 281 281 275 267 268 268 269 269 268 268 267 267 269 270 269 269 269 271 274 277 279 281 283 284 285 285 285 284 284 283 286 287
242 243 245 247 250 254 257 256 258 259 261 262 263 269 273 278 281 280 278 271 267 269 268 268 269 269 268 268 268 270 269 268 270 272 274 275 277 279 280 281 282 284 285 285 284 281 280 283 284
Height
5861 5863 5866 5869 5873 5872 5875 5877 5876 5877 5879 5879 5879 5880 5881 5881 5881 5884 5882 5882 5883 5882 5882 5880 5880 5879 5877 5876 5876 5875 5874 5873 5872 5872 5871 5871 5871 5871 5872 5872 5872 5872 5873 5872 5872 5872 5873 5872 5872
5861 5864 5867 5870 5872 5873 5875 5876 5877 5878 5879 5879 5880 5881 5882 5883 5882 5883 5883 5883 5883 5883 5883 5882 5881 5880 5879 5878 5878 5877 5876 5875 5874 5874 5873 5873 5873 5873 5873 5873 5873 5873 5873 5873 5873 5872 5871 5871 5871
5860 5863 5868 5870 5871 5873 5875 5876 5877 5878 5879 5880 5881 5881 5882 5883 5883 5884 5884 5885 5884 5884 5884 5883 5882 5881 5880 5879 5879 5878 5877 5876 5876 5875 5875 5874 5874 5874 5874 5874 5874 5873 5873 5873 5873 5872 5872 5871 5871
5858 5863 5867 5869 5871 5873 5875 5876 5877 5878 5879 5880 5881 5882 5883 5883 5883 5884 5885 5885 5885 5885 5885 5884 5883 5882 5881 5880 5879 5878 5878 5877 5877 5876 5876 5875 5875 5875 5874 5874 5874 5874 5873 5872 5872 5871 5871 5871 5870
5856 5861 5865 5867 5871 5873 5875 5876 5878 5878 5879 5879 5880 5882 5883 5884 5884 5885 5885 5885 5886 5886 5885 5884 5884 5883 5881 5880 5879 5878 5878 5877 5877 5876 5876 5875 5875 5875 5874 5874 5874 5873 5873 5872 5871 5871 5871 5869 5868
5855 5859 5863 5866 5870 5873 5875 5876 5878 5878 5879 5879 5880 5881 5883 5884 5884 5884 5885 5886 5886 5886 5885 5885 5884 5883 5881 5880 5879 5878 5877 5877 5876 5876 5876 5875 5875 5874 5874 5874 5873 5873 5872 5872 5871 5870 5870 5869 5868
5853 5857 5861 5864 5868 5871 5874 5875 5876 5878 5879 5879 5879 5880 5883 5883 5883 5884 5885 5885 5885 5885 5885 5884 5883 5882 5880 5879 5878 5877 5877 5876 5876 5876 5875 5875 5874 5874 5873 5873 5872 5872 5871 5871 5870 5870 5869 5868 5867
5852 5855 5858 5862 5866 5869 5872 5874 5876 5877 5878 5879 5879 5879 5881 5882 5883 5883 5884 5884 5884 5884 5885 5884 5883 5882 5880 5878 5877 5876 5876 5875 5875 5874 5874 5874 5873 5873 5873 5872 5871 5870 5870 5869 5869 5868 5867 5866 5865
5849 5853 5857 5860 5863 5867 5869 5871 5873 5875 5877 5878 5878 5878 5880 5880 5882 5883 5882 5884 5884 5884 5884 5883 5883 5881 5880 5878 5876 5876 5875 5875 5874 5873 5873 5873 5873 5872 5872 5871 5871 5870 5869 5868 5868 5867 5865 5864 5863
5846 5852 5855 5857 5861 5863 5866 5869 5871 5874 5875 5877 5877 5876 5879 5879 5880 5881 5881 5883 5883 5883 5883 5882 5882 5881 5879 5878 5876 5875 5874 5874 5873 5873 5872 5872 5871 5871 5871 5870 5870 5869 5868 5867 5867 5865 5864 5863 5861
5843 5848 5852 5855 5857 5861 5863 5866 5868 5871 5873 5876 5877 5875 5877 5877 5878 5880 5881 5881 5882 5882 5882 5881 5881 5880 5879 5878 5876 5875 5874 5873 5872 5872 5872 5871 5871 5870 5870 5869 5868 5867 5867 5866 5865 5864 5862 5860 5859
5841 5844 5848 5852 5854 5858 5861 5862 5865 5867 5870 5873 5875 5875 5875 5875 5876 5877 5879 5879 5880 5880 5881 5881 5880 5878 5878 5877 5876 5874 5873 5872 5872 5871 5870 5870 5870 5869 5869 5868 5867 5866 5865 5864 5863 5862 5860 5858 5856
5837 5841 5842 5847 5852 5854 5857 5859 5863 5864 5866 5869 5871 5872 5873 5874 5874 5875 5876 5877 5878 5878 5879 5879 5879 5878 5877 5876 5876 5874 5872 5871 5870 5869 5869 5868 5867 5867 5867 5866 5865 5864 5863 5861 5860 5858 5857 5855 5853
5832 5837 5840 5843 5847 5850 5853 5855 5859 5861 5863 5866 5867 5869 5871 5871 5873 5874 5874 5875 5876 5876 5877 5876 5876 5877 5876 5875 5874 5874 5872 5870 5869 5868 5867 5865 5864 5863 5864 5863 5862 5861 5859 5858 5856 5854 5852 5851 5849
5827 5831 5835 5839 5842 5845 5849 5853 5856 5855 5859 5862 5863 5864 5866 5867 5869 5870 5870 5872 5873 5874 5873 5874 5874 5874 5874 5873 5872 5872 5871 5869 5867 5866 5865 5864 5862 5860 5858 5858 5858 5857 5855 5854 5852 5850 5847 5845 5843
5823 5827 5830 5834 5837 5840 5844 5850 5850 5851 5853 5856 5858 5860 5862 5863 5864 5866 5867 5868 5869 5870 5870 5871 5871 5871 5871 5871 5870 5869 5869 5868 5866 5864 5863 5862 5861 5859 5858 5856 5854 5853 5851 5848 5846 5844 5842 5840 5837
5816 5821 5826 5827 5830 5834 5838 5844 5844 5846 5847 5850 5853 5855 5858 5858 5860 5861 5862 5863 5864 5866 5867 5867 5868 5867 5867 5867 5867 5866 5865 5864 5863 5861 5859 5858 5857 5856 5855 5853 5852 5850 5847 5845 5842 5840 5837 5835 5833
5813 5815 5819 5820 5825 5827 5831 5837 5837 5840 5843 5845 5847 5850 5851 5852 5853 5854 5856 5859 5860 5861 5863 5863 5863 5864 5863 5863 5863 5862 5861 5860 5859 5857 5855 5853 5852 5851 5850 5849 5846 5844 5842 5839 5837 5834 5831 5828 5825
5804 5807 5810 5814 5818 5821 5824 5829 5832 5834 5838 5840 5840 5842 5845 5847 5846 5848 5849 5851 5854 5857 5858 5857 5858 5858 5858 5858 5858 5858 5857 5856 5854 5852 5851 5849 5847 5845 5844 5842 5840 5838 5836 5833 5830 5827 5824 5821 5817
5797 5800 5803 5808 5810 5814 5818 5823 5825 5827 5831 5833 5834 5835 5838 5839 5840 5841 5841 5844 5847 5849 5851 5852 5852 5852 5852 5852 5852 5852 5851 5849 5847 5845 5843 5843 5841 5839 5837 5835 5832 5830 5828 5825 5822 5819 5816 5814 5810
5791 5795 5797 5800 5801 5806 5810 5815 5818 5821 5823 5825 5828 5829 5830 5831 5832 5833 5835 5837 5840 5843 5843 5845 5845 5845 5846 5845 5845 5845 5844 5843 5841 5839 5837 5835 5834 5832 5830 5827 5824 5821 5819 5816 5813 5811 5808 5805 5802
5782 5786 5788 5791 5793 5799 5802 5806 5812 5813 5816 5819 5820 5821 5822 5824 5826 5827 5829 5830 5833 5835 5836 5836 5837 5838 5838 5838 5838 5837 5836 5835 5833 5832 5830 5827 5825 5823 5821 5819 5817 5813 5811 5807 5803 5800 5797 5795 5792
5776 5777 5779 5782 5785 5790 5796 5797 5807 5808 5810 5811 5812 5814 5816 5817 5818 5820 5822 5823 5825 5827 5828 5829 5830 5830 5829 5829 5828 5827 5827 5826 5824 5822 5820 5819 5816 5814 5812 5810 5808 5805 5802 5799 5796 5793 5790 5787 5783
5765 5768 5771 5774 5777 5781 5787 5788 5798 5801 5803 5805 5805 5806 5808 5809 5811 5812 5814 5816 5817 5818 5819 5820 5821 5821 5820 5819 5818 5818 5817 5815 5814 5812 5809 5807 5805 5803 5801 5799 5797 5795 5793 5790 5787 5783 5781 5777 5772
5755 5759 5762 5765 5767 5773 5777 5780 5791 5791 5793 5796 5798 5800 5801 5802 5803 5804 5805 5807 5808 5809 5810 5810 5811 5810 5810 5809 5808 5807 5807 5805 5803 5801 5799 5797 5794 5792 5791 5789 5787 5785 5782 5780 5777 5774 5770 5767 5764
5747 5751 5755 5757 5760 5765 5766 5772 5782 5780 5785 5787 5788 5789 5791 5793 5794 5795 5796 5796 5798 5799 5800 5800 5800 5799 5798 5797 5796 5795 5794 5793 5791 5790 5788 5786 5784 5781 5778 5777 5774 5772 5770 5767 5765 5761 5758 5755 5752
5736 5740 5748 5746 5750 5752 5757 5765 5770 5772 5773 5777 5780 5781 5782 5783 5782 5783 5784 5785 5787 5788 5788 5788 5788 5787 5786 5785 5784 5783 5782 5781 5780 5779 5778 5775 5773 5770 5767 5765 5762 5759 5756 5753 5751 5748 5745 5743 5740
5726 5733 5733 5734 5738 5739 5746 5752 5761 5765 5765 5764 5767 5770 5771 5772 5773 5774 5774 5774 5775 5775 5776 5777 5776 5776 5775 5774 5773 5772 5770 5770 5768 5767 5765 5763 5760 5758 5755 5752 5749 5746 5743 5740 5738 5736 5734 5731 5729
5714 5717 5721 5724 5726 5730 5736 5743 5750 5752 5753 5753 5752 5753 5756 5758 5760 5762 5764 5764 5763 5763 5763 5763 5763 5763 5762 5761 5760 5759 5757 5756 5755 5754 5752 5751 5749 5747 5744 5740 5737 5734 5731 5729 5727 5725 5723 5720 5718
5700 5706 5710 5710 5717 5718 5722 5730 5738 5738 5739 5740 5742 5742 5742 5744 5746 5748 5749 5749 5750 5750 5750 5749 5749 5749 5749 5747 5747 5746 5746 5745 5744 5743 5741 5739 5737 5734 5731 5727 5724 5722 5720 5717 5715 5714 5711 5709 5707